Voltar ao catálogo

SAUDISAT 5A

AtivoRádio AmadorSSO
NORAD 43831·PAYLOAD·🇸🇦 Saudi Arabia

Lançado Dec 7, 2018 de Jiuquan Satellite Launch Center

Loading…

Próximas Passagens (próximas 24 horas)

TLE

AtualizadoSource: Space-Track

Época: Sep 14, 2026, 14:15 UTC

1 43831U 18102A   26257.59381313  .00004294  00000-0  15576-3 0  9992
2 43831  97.2972 317.4544 0009757 166.8141 193.3356 15.28823807429335

Acompanhe SAUDISAT 5A em tempo real com AllMySat

Download on the App Store